[[{"header":{"parameterUnit":"m.s-1","parameterCategory":1,"la1":30.2991,"la2":30.254,"lo1":-89.0895,"lo2":-89.0444,"dy":0.0017,"dx":0.0017,"nx":28,"ny":28,"refTime":"2025-09-01T09:00:00:Z","depth":0,"parameterNumber":2,"parameterNumberName":"U-component_of_WINDS"},"data":[0,0,0,0,0,0,0,0,0,0,0,0,0,0,0,0,0,0,0,0,0,0,0,0,0,0,0,0,0,0,0,0,0,0,0,0,0,0,0,0,0,0,0,0,0,0,0,0,0,0,0,0,0,0,0,0,0,0,-2.2394,-2.2394,0,-2.2393,-2.2393,-2.2393,-2.2322,-2.232,-2.2318,-2.2316,-2.2316,-2.2318,-2.232,0,0,0,0,0,0,0,0,0,0,0,0,0,-2.2334,-2.2335,-2.2394,-2.2394,-2.2394,-2.2393,-2.2393,-2.2393,-2.2322,-2.232,-2.2317,-2.2315,-2.2316,-2.2318,-2.232,0,0,0,0,0,0,0,0,0,0,0,0,0,-2.2349,-2.2336,-2.2394,-2.2358,-2.2355,-2.2393,-2.2393,-2.2393,-2.2323,-2.232,-2.2317,-2.2314,-2.2315,-2.2317,-2.232,-2.2393,0,0,-2.2328,-2.2329,0,0,0,0,0,0,0,0,-2.2349,-2.2352,-2.2364,-2.2361,-2.2357,-2.2355,-2.2372,-2.2393,-2.2323,-2.2335,-2.2316,-2.2313,-2.2331,-2.2332,-2.2338,-2.2393,-2.2393,-2.2328,-2.233,-2.2331,-2.2332,0,0,0,0,0,0,0,-2.2348,-2.2351,-2.2394,-2.2364,-2.236,-2.2342,-2.2342,-2.2376,-2.2349,-2.2334,-2.2329,-2.2329,-2.2329,-2.2336,-2.2338,-2.2393,-2.2328,-2.2331,-2.2332,-2.2333,-2.2505,-2.2508,0,0,0,0,0,0,-2.2351,-2.2351,-2.2394,-2.2394,-2.2346,-2.2346,-2.2345,-2.2358,-2.2348,-2.2344,-2.2332,-2.2326,-2.2333,-2.2335,-2.2338,-2.2421,-2.2331,-2.2333,-2.2335,-2.2502,-2.2505,-2.2509,0,0,0,0,0,0,-2.235,-2.2356,-2.2394,-2.2371,-2.2374,-2.235,-2.2366,-2.236,-2.2367,-2.2347,-2.2342,-2.2344,-2.2331,-2.2334,-2.2379,-2.242,-2.2335,-2.2337,-2.2498,-2.2503,-2.2507,-2.2589,0,0,0,0,0,0,-2.2349,-2.2356,-2.2383,-2.2372,-2.2376,-2.2436,-2.2368,-2.2362,-2.2371,-2.2364,-2.2357,-2.2353,-2.2329,-2.2376,-2.2382,-2.2422,-2.2339,-2.2495,-2.25,-2.2506,-2.2582,-2.2595,-2.2607,0,0,0,0,0,-2.2347,-2.2407,-2.2385,-2.2391,-2.241,-2.2438,-2.244,-2.2411,-2.2375,-2.2402,-2.2389,-2.2353,-2.2415,-2.2381,-2.2387,-2.2429,-2.2492,-2.2499,-2.2505,-2.2577,-2.2593,-2.2606,0,0,0,0,0,0,-2.2424,-2.2405,-2.238,-2.2438,-2.244,-2.2426,-2.2459,-2.2429,-2.2442,-2.2434,-2.2398,-2.2397,-2.2447,-2.2443,-2.2405,-2.2498,-2.2447,-2.2455,-2.2499,-2.2514,-2.2526,-2.2526,-2.2341,0,0,0,0,0,-2.2447,-2.2472,-2.2454,-2.2507,-2.2509,-2.2484,-2.2496,-2.2473,-2.2474,-2.2474,-2.2464,-2.2467,-2.2486,-2.25,-2.2517,-2.2581,-2.2578,-2.2613,-2.2625,-2.2635,-2.2643,-2.2675,-2.269,-2.2531,-2.2531,-2.2531,0,0,-2.2497,-2.2489,-2.2507,-2.2522,-2.2521,-2.2547,-2.2485,-2.2516,-2.2535,-2.2479,-2.252,-2.2514,-2.2514,-2.2568,-2.2592,-2.2566,-2.2686,-2.2644,-2.2652,-2.2654,-2.2684,-2.2699,-2.2712,-2.2535,-2.2535,-2.2534,0,0,-2.2599,-2.2596,-2.2639,-2.2639,-2.2638,-2.2621,-2.2632,-2.2622,-2.2615,-2.2656,-2.2614,-2.2636,-2.2671,-2.2673,-2.2678,-2.2781,-2.2748,-2.2787,-2.2851,-2.2883,-2.2896,-2.2907,-2.2942,-2.2956,-2.2795,-2.2795,-2.2795,0,-2.266,-2.2698,-2.2665,-2.2698,-2.2706,-2.2656,-2.2699,-2.2701,-2.2706,-2.2712,-2.2683,-2.2725,-2.2721,-2.2775,-2.28,-2.2807,-2.2817,-2.2788,-2.2896,-2.2907,-2.2917,-2.295,-2.2964,-2.28,-2.2799,-2.2799,-2.2798,0,-2.2772,-2.2799,-2.2834,-2.2839,-2.2851,-2.2889,-2.2862,-2.2878,-2.2854,-2.284,-2.2882,-2.2876,-2.2891,-2.2902,-2.288,-2.2953,-2.2937,-2.2903,-2.285,-2.2937,-2.2968,-2.2981,-2.2807,-2.2805,-2.2804,-2.2802,0,0,-2.2923,-2.2909,-2.2923,-2.2924,-2.2919,-2.2939,-2.2974,-2.2988,-2.3002,-2.3007,-2.3035,-2.3066,-2.3034,-2.304,-2.3017,-2.3046,-2.3126,-2.3008,-2.3007,-2.3029,-2.3205,-2.323,-2.3246,-2.3105,-2.3107,-2.3109,-2.3205,0,-2.3022,-2.3081,-2.3052,-2.3115,-2.3139,-2.3092,-2.3122,-2.3123,-2.3111,-2.3129,-2.3116,-2.3138,-2.3095,-2.3098,-2.3124,-2.3111,-2.3161,-2.3104,-2.313,-2.3132,-2.3131,-2.3262,-2.3289,-2.338,-2.3217,-2.3219,-2.3221,0,-2.3144,-2.3154,-2.3219,-2.3208,-2.3217,-2.3245,-2.3255,-2.3273,-2.3272,-2.3262,-2.3268,-2.3239,-2.3273,-2.3222,-2.3268,-2.3229,-2.3239,-2.3234,-2.3237,-2.3237,-2.3181,-2.3265,-2.3408,-2.3421,-2.3239,-2.3238,-2.3237,0,-2.3246,-2.3275,-2.3317,-2.332,-2.3309,-2.333,-2.3327,-2.3323,-2.3333,-2.3342,-2.3347,-2.3361,-2.3368,-2.3378,-2.3353,-2.3318,-2.3402,-2.3349,-2.3394,-2.3395,-2.3413,-2.3412,-2.3558,-2.3421,-2.3421,-2.342,-2.342,0,-2.3359,-2.34,-2.3363,-2.3389,-2.3434,-2.3401,-2.3446,-2.3437,-2.3434,-2.3458,-2.3418,-2.3441,-2.3407,-2.3426,-2.3407,-2.3447,-2.3451,-2.3443,-2.3437,-2.3446,-2.3447,-2.3451,-2.3444,-2.3424,-2.3423,-2.3422,-2.3422,0,-2.348,-2.3457,-2.35,-2.3486,-2.3483,-2.3517,-2.3505,-2.3528,-2.3513,-2.3543,-2.3548,-2.3525,-2.3546,-2.3522,-2.3541,-2.3528,-2.3582,-2.3568,-2.3582,-2.3578,-2.3623,-2.3619,-2.3777,-2.3795,-2.3647,-2.3648,-2.365,0,-2.3553,-2.3584,-2.3573,-2.3585,-2.3584,-2.3605,-2.3614,-2.3583,-2.3594,-2.3595,-2.3618,-2.3635,-2.3647,-2.3683,-2.3668,-2.3682,-2.3667,-2.3721,-2.3669,-2.3676,-2.3667,-2.3665,-2.3667,-2.3732,-2.3733,-2.3735,-2.3736,0,-2.3685,-2.3671,-2.3686,-2.3697,-2.3709,-2.3717,-2.3721,-2.3734,-2.3701,-2.3716,-2.3736,-2.3745,-2.3764,-2.3782,-2.3792,-2.3788,-2.3757,-2.3753,-2.3763,-2.3772,-2.3779,-2.3775,-2.3611,-2.3749,-2.3748,-2.3747,-2.3746,-2.3746,-2.3783,-2.3808,-2.3803,-2.3821,-2.3821,-2.3826,-2.3846,-2.3834,-2.385,-2.3862,-2.3843,-2.3868,-2.3866,-2.3876,-2.3876,-2.3895,-2.3872,-2.3888,-2.3892,-2.3896,-2.3903,-2.3777,-2.3897,-2.3897,-2.3896,-2.3896,-2.3896,0,-2.3912,-2.3906,-2.3923,-2.393,-2.3944,-2.3912,-2.3915,-2.3929,-2.3952,-2.3952,-2.3964,-2.3987,-2.4004,-2.399,-2.4004,-2.4022,-2.4008,-2.4026,-2.4024,-2.4024,-2.3923,-2.3912,-2.4038,-2.4038,-2.4037,-2.4037,-2.4037,-2.4037,-2.398,-2.402,-2.4006,-2.4045,-2.4039,-2.4063,-2.4067,-2.4071,-2.4071,-2.4098,-2.4111,-2.4102,-2.4096,-2.4109,-2.4123,-2.4118,-2.4125,-2.4149,-2.4139,-2.4045,-2.4031,-2.4018,-2.4007,-2.4151,-2.4151,-2.4238,-2.4239,-2.424]},{"header":{"parameterUnit":"m.s-1","parameterCategory":1,"la1":30.2991,"la2":30.254,"lo1":-89.0895,"lo2":-89.0444,"dy":0.0017,"dx":0.0017,"nx":28,"ny":28,"refTime":"2025-09-01T09:00:00:Z","depth":0,"parameterNumber":3,"parameterNumberName":"V-component_of_WINDS"},"data":[0,0,0,0,0,0,0,0,0,0,0,0,0,0,0,0,0,0,0,0,0,0,0,0,0,0,0,0,0,0,0,0,0,0,0,0,0,0,0,0,0,0,0,0,0,0,0,0,0,0,0,0,0,0,0,0,0,0,2.356,2.356,0,2.3565,2.3565,2.3565,2.3538,2.3538,2.3537,2.3536,2.354,2.3541,2.3542,0,0,0,0,0,0,0,0,0,0,0,0,0,2.3527,2.3527,2.356,2.356,2.356,2.3565,2.3565,2.3565,2.3538,2.3538,2.3537,2.3536,2.354,2.3541,2.3542,0,0,0,0,0,0,0,0,0,0,0,0,0,2.3537,2.3528,2.356,2.3547,2.3546,2.3565,2.3565,2.3565,2.3539,2.3538,2.3536,2.3535,2.354,2.3541,2.3542,2.3573,0,0,2.3546,2.3547,0,0,0,0,0,0,0,0,2.3537,2.3538,2.3549,2.3548,2.3547,2.355,2.3555,2.3568,2.3539,2.3542,2.3536,2.3535,2.3544,2.3545,2.3549,2.3573,2.3573,2.3546,2.3547,2.3547,2.3548,0,0,0,0,0,0,0,2.3536,2.3538,2.3562,2.3549,2.3548,2.3541,2.3541,2.3557,2.3549,2.3541,2.3539,2.354,2.3544,2.3548,2.3549,2.3573,2.3546,2.3547,2.3548,2.3548,2.3622,2.3623,0,0,0,0,0,0,2.3537,2.3538,2.3562,2.3562,2.3539,2.3543,2.3543,2.355,2.3549,2.3548,2.3541,2.3539,2.3546,2.3547,2.3549,2.3583,2.3547,2.3549,2.3549,2.3621,2.3622,2.3623,0,0,0,0,0,0,2.3536,2.3539,2.3561,2.3549,2.3552,2.3545,2.3553,2.3551,2.3555,2.3549,2.3548,2.3547,2.3545,2.3547,2.3567,2.3583,2.3549,2.355,2.3619,2.3621,2.3623,2.3653,0,0,0,0,0,0,2.3536,2.3539,2.3551,2.355,2.3552,2.358,2.3554,2.3552,2.3557,2.3554,2.3554,2.3553,2.3544,2.3565,2.3568,2.3584,2.3551,2.3618,2.362,2.3622,2.3651,2.3656,2.366,0,0,0,0,0,2.3534,2.356,2.3552,2.3555,2.3567,2.3581,2.3582,2.3572,2.3558,2.357,2.3566,2.3553,2.3581,2.3567,2.357,2.3587,2.3617,2.3619,2.3622,2.3648,2.3655,2.366,0,0,0,0,0,0,2.3563,2.3559,2.355,2.3576,2.3579,2.3576,2.359,2.358,2.3586,2.3583,2.3571,2.3571,2.3593,2.3592,2.3577,2.3616,2.3596,2.36,2.3615,2.3621,2.3626,2.3625,2.3552,0,0,0,0,0,2.3572,2.3584,2.358,2.3603,2.3605,2.3598,2.3603,2.3596,2.3598,2.3599,2.3597,2.36,2.3609,2.3615,2.3624,2.3651,2.365,2.3664,2.3669,2.3673,2.3675,2.3688,2.3694,2.3632,2.3632,2.3632,0,0,2.3591,2.3591,2.3599,2.3609,2.361,2.3622,2.3599,2.3613,2.3621,2.3601,2.3619,2.3618,2.362,2.3644,2.3654,2.3644,2.3692,2.3676,2.3679,2.368,2.3692,2.3698,2.3703,2.3634,2.3634,2.3633,0,0,2.3632,2.3633,2.3652,2.3653,2.3656,2.3651,2.3655,2.3655,2.3653,2.3671,2.3656,2.3666,2.3683,2.3685,2.3688,2.3729,2.3716,2.3732,2.3757,2.377,2.3775,2.3779,2.3792,2.3797,2.3735,2.3735,2.3736,0,2.3655,2.3673,2.3663,2.3677,2.3681,2.3664,2.3682,2.3685,2.369,2.3693,2.3682,2.3702,2.3702,2.3725,2.3735,2.3739,2.3743,2.3732,2.3775,2.3779,2.3783,2.3795,2.3801,2.3737,2.3737,2.3737,2.3737,0,2.37,2.3713,2.3728,2.3733,2.3739,2.3756,2.3747,2.3755,2.3747,2.3743,2.3761,2.3761,2.3769,2.3774,2.3767,2.3796,2.3789,2.3777,2.3756,2.3791,2.3802,2.3807,2.374,2.3739,2.3739,2.3738,0,0,2.3758,2.3757,2.3763,2.3764,2.3766,2.3775,2.3791,2.3799,2.3804,2.3809,2.3821,2.3836,2.3824,2.3827,2.382,2.3832,2.3863,2.3817,2.3817,2.3824,2.3894,2.3902,2.3908,2.3855,2.3856,2.3857,2.3893,0,2.3796,2.3823,2.3814,2.3841,2.3851,2.3835,2.3849,2.3851,2.3848,2.3856,2.3853,2.3863,2.3847,2.3849,2.386,2.3857,2.3876,2.3854,2.3865,2.3866,2.3863,2.3914,2.3923,2.3957,2.3898,2.3899,2.3899,0,2.3844,2.385,2.3878,2.3877,2.3881,2.3893,2.3899,2.3908,2.391,2.3907,2.3911,2.3901,2.3916,2.3897,2.3916,2.3901,2.3906,2.3905,2.3906,2.3905,2.3883,2.3913,2.3968,2.3973,2.3906,2.3906,2.3905,0,2.3882,2.3897,2.3915,2.3917,2.3917,2.3926,2.3926,2.3927,2.3932,2.3937,2.394,2.3947,2.3951,2.3956,2.3948,2.3935,2.3969,2.3949,2.3965,2.3966,2.3972,2.3971,2.4027,2.3977,2.3977,2.3977,2.3977,0,2.3924,2.3942,2.3931,2.3942,2.3961,2.3951,2.397,2.3968,2.3969,2.3979,2.3966,2.3976,2.3966,2.3974,2.3968,2.3985,2.3987,2.3984,2.3982,2.3984,2.3984,2.3986,2.3982,2.3979,2.3978,2.3978,2.3978,0,2.3969,2.3963,2.3981,2.3979,2.3979,2.3993,2.3991,2.4001,2.3997,2.401,2.4013,2.4007,2.4016,2.4009,2.4019,2.4014,2.4036,2.4031,2.4035,2.4033,2.4049,2.4047,2.4106,2.4112,2.4061,2.4061,2.4062,0,2.3995,2.4008,2.4008,2.4014,2.4015,2.4024,2.4029,2.402,2.4026,2.4029,2.4038,2.4047,2.4053,2.4069,2.4065,2.4072,2.4066,2.4087,2.4067,2.4069,2.4065,2.4063,2.4064,2.409,2.409,2.4091,2.4091,0,2.4043,2.404,2.4047,2.4054,2.406,2.4065,2.4069,2.4074,2.4065,2.4072,2.4081,2.4086,2.4096,2.4104,2.411,2.4109,2.4099,2.4098,2.4102,2.4103,2.4104,2.4102,2.4044,2.4096,2.4096,2.4095,2.4095,2.4095,2.4079,2.4089,2.409,2.4098,2.41,2.4104,2.4113,2.411,2.4118,2.4125,2.412,2.4131,2.4132,2.4139,2.414,2.4148,2.414,2.4146,2.4147,2.4148,2.415,2.4104,2.4149,2.4149,2.4149,2.4149,2.4149,0,2.4124,2.4124,2.4133,2.4138,2.4145,2.4135,2.4138,2.4144,2.4154,2.4157,2.4163,2.4174,2.4181,2.4179,2.4185,2.4193,2.4188,2.4194,2.4193,2.4193,2.4158,2.4153,2.4198,2.4198,2.4198,2.4198,2.4198,2.4198,2.4149,2.4165,2.4162,2.4179,2.4178,2.4189,2.4192,2.4195,2.4197,2.4209,2.4215,2.4214,2.4214,2.422,2.4227,2.4226,2.4228,2.4237,2.4234,2.42,2.4196,2.4191,2.4186,2.4238,2.4238,2.4268,2.4268,2.4269]}]]